Consulta los datos en tiempo real de la estación municipal de Cànoves i Samalús
| Hora UTC | 08:30 |
|---|---|
| Temperatura | 26.2 ºC |
| Humedad | 64.2 % |
| Presión | 1019.7 hPa |
| Pluja | 0.0 mm |
| Velocidad viento | 4.9 km/h |
| Dirección viento | NNW |
| Radiación solar | 499.1 W/m² |
| Temperatura (ºC) | Humedad (%) | Presión (hPa) | Velocidad viento (km/h) | Precipitación (mm) | Radiación solar (W/m²) | |||||||||||||
|---|---|---|---|---|---|---|---|---|---|---|---|---|---|---|---|---|---|---|
| Hora UTC | Aire | Humedad | Presión | Vel. | Dir. | Vel. Max | Dir. | Intent. máx 5 min. | Rad. Sol. | |||||||||
| 00:05 | 20.0 | 91.8 | 1020.6 | 3.7 | NW | 3.7 | NW | 0.0 | 0.1 | |||||||||
| 00:10 | 20.0 | 92.0 | 1020.6 | 2.6 | NW | 3.9 | NW | 0.0 | 0.1 | |||||||||
| 00:15 | 19.9 | 91.7 | 1020.6 | 2.6 | WNW | 3.5 | WNW | 0.0 | 0.1 | |||||||||
| 00:20 | 19.9 | 91.7 | 1020.6 | 3.0 | NW | 3.9 | NW | 0.0 | 0.1 | |||||||||
| 00:25 | 19.8 | 91.5 | 1020.5 | 2.2 | NW | 3.5 | NW | 0.0 | 0.1 | |||||||||
| 00:30 | 19.7 | 91.6 | 1020.5 | 2.1 | NW | 3.2 | NW | 0.0 | 0.1 | |||||||||
| 00:35 | 19.7 | 91.6 | 1020.5 | 2.9 | NW | 3.5 | NW | 0.0 | 0.1 | |||||||||
| 00:40 | 19.6 | 91.7 | 1020.5 | 2.9 | NNW | 3.9 | NW | 0.0 | 0.1 | |||||||||
| 00:45 | 19.7 | 91.7 | 1020.6 | 2.6 | NW | 3.9 | NW | 0.0 | 0.1 | |||||||||
| 00:50 | 19.6 | 91.9 | 1020.6 | 1.8 | NNW | 2.8 | NW | 0.0 | 0.1 | |||||||||
| 00:55 | 19.6 | 91.9 | 1020.6 | 0.6 | NNW | 2.1 | NNW | 0.0 | 0.1 | |||||||||
| 01:00 | 19.6 | 91.9 | 1020.6 | 2.1 | NNW | 4.2 | N | 0.0 | 0.1 | |||||||||
| 01:05 | 19.6 | 92.1 | 1020.6 | 3.0 | NNW | 5.3 | NNW | 0.0 | 0.1 | |||||||||
| 01:10 | 19.7 | 91.9 | 1020.6 | 3.1 | NNW | 4.9 | NNW | 0.0 | 0.1 | |||||||||
| 01:15 | 19.6 | 91.8 | 1020.5 | 2.7 | NNW | 3.5 | NNW | 0.0 | 0.1 | |||||||||
| 01:20 | 19.6 | 91.7 | 1020.4 | 2.9 | NNW | 3.9 | NNW | 0.0 | 0.1 | |||||||||
| 01:25 | 19.6 | 91.6 | 1020.4 | 3.5 | NNW | 4.9 | N | 0.0 | 0.1 | |||||||||
| 01:30 | 19.6 | 91.7 | 1020.4 | 2.6 | NNW | 3.5 | NNW | 0.0 | 0.1 | |||||||||
| 01:35 | 19.5 | 91.7 | 1020.5 | 2.7 | NNW | 3.5 | NNW | 0.0 | 0.1 | |||||||||
| 01:40 | 19.5 | 92.0 | 1020.5 | 3.5 | NNW | 4.9 | NNW | 0.0 | 0.1 | |||||||||
| 01:45 | 19.6 | 92.3 | 1020.5 | 3.3 | NNW | 5.3 | NW | 0.0 | 0.1 | |||||||||
| 01:50 | 19.7 | 92.3 | 1020.4 | 2.7 | NNW | 3.5 | NNE | 0.0 | 0.1 | |||||||||
| 01:55 | 19.8 | 92.2 | 1020.4 | 2.5 | NNW | 3.9 | NNW | 0.0 | 0.1 | |||||||||
| 02:00 | 19.7 | 92.1 | 1020.4 | 2.1 | NNW | 2.8 | NNW | 0.0 | 0.1 | |||||||||
| 02:05 | 19.8 | 92.3 | 1020.4 | 2.3 | NNW | 3.5 | NNW | 0.0 | 0.1 | |||||||||
| 02:10 | 19.9 | 92.3 | 1020.3 | 2.9 | NNW | 3.9 | NNW | 0.0 | 0.1 | |||||||||
| 02:15 | 19.8 | 91.8 | 1020.3 | 2.6 | NNW | 3.5 | NNW | 0.0 | 0.1 | |||||||||
| 02:20 | 19.8 | 91.8 | 1020.2 | 2.2 | NNW | 3.2 | NNW | 0.0 | 0.1 | |||||||||
| 02:25 | 19.8 | 91.7 | 1020.2 | 2.4 | NW | 3.2 | NNW | 0.0 | 0.1 | |||||||||
| 02:30 | 19.7 | 91.9 | 1020.1 | 1.9 | NW | 3.2 | WNW | 0.0 | 0.1 | |||||||||
| 02:35 | 19.8 | 92.3 | 1020.0 | 1.7 | NW | 3.2 | NW | 0.0 | 0.1 | |||||||||
| 02:40 | 19.9 | 92.2 | 1020.0 | 1.3 | NW | 2.5 | NW | 0.0 | 0.1 | |||||||||
| 02:45 | 19.8 | 91.9 | 1019.9 | 1.9 | NW | 2.8 | NW | 0.0 | 0.1 | |||||||||
| 02:50 | 19.7 | 91.7 | 1019.9 | 2.0 | NW | 2.8 | NW | 0.0 | 0.1 | |||||||||
| 02:55 | 19.6 | 91.8 | 1019.8 | 2.9 | NNW | 4.2 | NNW | 0.0 | 0.1 | |||||||||
| 03:00 | 19.6 | 91.9 | 1019.8 | 2.7 | NW | 3.9 | NNW | 0.0 | 0.1 | |||||||||
| 03:05 | 19.6 | 92.1 | 1019.8 | 4.0 | NW | 7.1 | NW | 0.0 | 0.1 | |||||||||
| 03:10 | 19.6 | 92.4 | 1019.7 | 4.3 | NW | 7.4 | NW | 0.0 | 0.1 | |||||||||
| 03:15 | 19.6 | 92.1 | 1019.7 | 2.0 | NNW | 4.6 | NW | 0.0 | 0.1 | |||||||||
| 03:20 | 19.6 | 91.9 | 1019.6 | 3.0 | NNW | 3.9 | NNW | 0.0 | 0.1 | |||||||||
| 03:25 | 19.6 | 91.8 | 1019.6 | 3.0 | NNW | 5.3 | NW | 0.0 | 0.1 | |||||||||
| 03:30 | 19.5 | 91.5 | 1019.6 | 1.8 | WNW | 5.3 | NW | 0.0 | 0.1 | |||||||||
| 03:35 | 19.5 | 91.6 | 1019.6 | 2.4 | NW | 4.2 | WNW | 0.0 | 0.1 | |||||||||
| 03:40 | 19.4 | 91.4 | 1019.6 | 1.9 | NNW | 3.9 | NW | 0.0 | 0.1 | |||||||||
| 03:45 | 19.3 | 91.3 | 1019.6 | 1.4 | NNW | 2.1 | NNW | 0.0 | 0.1 | |||||||||
| 03:50 | 19.2 | 91.3 | 1019.6 | 2.7 | NNW | 3.5 | NNW | 0.0 | 0.1 | |||||||||
| 03:55 | 19.1 | 91.6 | 1019.5 | 2.9 | NW | 3.9 | NW | 0.0 | 0.1 | |||||||||
| 04:00 | 19.1 | 91.7 | 1019.5 | 2.3 | NW | 3.5 | NW | 0.0 | 0.1 | |||||||||
| 04:05 | 19.0 | 91.8 | 1019.5 | 2.5 | NW | 3.2 | NW | 0.0 | 0.1 | |||||||||
| 04:10 | 19.0 | 92.0 | 1019.5 | 2.9 | NNW | 3.9 | NNW | 0.0 | 0.1 | |||||||||
| 04:15 | 18.9 | 91.9 | 1019.4 | 2.3 | NNW | 3.5 | NNW | 0.0 | 0.1 | |||||||||
| 04:20 | 18.8 | 91.8 | 1019.5 | 2.1 | NW | 2.8 | N | 0.0 | 0.1 | |||||||||
| 04:25 | 18.7 | 91.8 | 1019.5 | 2.0 | NNW | 2.8 | NNW | 0.0 | 0.1 | |||||||||
| 04:30 | 18.6 | 91.9 | 1019.5 | 2.5 | NNW | 3.2 | NNW | 0.0 | 0.1 | |||||||||
| 04:35 | 18.6 | 92.0 | 1019.4 | 3.2 | NNW | 4.2 | NNW | 0.0 | 0.1 | |||||||||
| 04:40 | 18.5 | 92.1 | 1019.4 | 3.3 | NNW | 4.6 | NW | 0.0 | 0.1 | |||||||||
| 04:45 | 18.5 | 92.1 | 1019.4 | 3.0 | NNW | 3.9 | NW | 0.0 | 0.1 | |||||||||
| 04:50 | 18.5 | 92.3 | 1019.4 | 3.4 | NNW | 4.2 | NNW | 0.0 | 0.1 | |||||||||
| 04:55 | 18.5 | 92.4 | 1019.4 | 2.9 | NNW | 3.9 | NNW | 0.0 | 0.3 | |||||||||
| 05:00 | 18.5 | 92.5 | 1019.4 | 3.7 | NW | 4.6 | NW | 0.0 | 0.7 | |||||||||
| 05:05 | 18.5 | 92.4 | 1019.4 | 4.0 | NNW | 4.9 | NNW | 0.0 | 1.3 | |||||||||
| 05:10 | 18.5 | 92.4 | 1019.4 | 3.7 | NNW | 5.3 | NNW | 0.0 | 2.5 | |||||||||
| 05:15 | 18.4 | 92.1 | 1019.5 | 4.1 | NNW | 5.3 | NNW | 0.0 | 4.0 | |||||||||
| 05:20 | 18.4 | 92.3 | 1019.5 | 4.0 | NNW | 5.3 | NNW | 0.0 | 6.1 | |||||||||
| 05:25 | 18.3 | 92.2 | 1019.5 | 3.5 | NNW | 6.4 | NNW | 0.0 | 8.6 | |||||||||
| 05:30 | 18.3 | 92.4 | 1019.5 | 3.3 | NNW | 4.2 | NNW | 0.0 | 11.4 | |||||||||
| 05:35 | 18.3 | 92.4 | 1019.5 | 3.1 | NNW | 4.9 | NNW | 0.0 | 14.5 | |||||||||
| 05:40 | 18.4 | 92.6 | 1019.6 | 4.8 | NNW | 8.5 | N | 0.0 | 17.5 | |||||||||
| 05:45 | 18.4 | 92.5 | 1019.6 | 4.1 | NNW | 5.6 | NNW | 0.0 | 20.6 | |||||||||
| 05:50 | 18.5 | 92.6 | 1019.6 | 3.5 | NNW | 4.6 | NNW | 0.0 | 24.2 | |||||||||
| 05:55 | 18.7 | 92.9 | 1019.5 | 2.7 | N | 4.6 | 0.0 | 28.0 | ||||||||||
| 06:00 | 18.9 | 92.8 | 1019.6 | 2.1 | N | 4.6 | NNE | 0.0 | 43.2 | |||||||||
| 06:05 | 19.1 | 92.9 | 1019.6 | 3.4 | N | 6.7 | N | 0.0 | 31.4 | |||||||||
| 06:10 | 19.4 | 91.9 | 1019.6 | 2.6 | N | 7.4 | NNW | 0.0 | 32.6 | |||||||||
| 06:15 | 19.7 | 90.8 | 1019.6 | 3.2 | NNW | 6.7 | N | 0.0 | 34.4 | |||||||||
| 06:20 | 20.1 | 89.2 | 1019.6 | 2.8 | N | 5.6 | N | 0.0 | 35.6 | |||||||||
| 06:25 | 20.4 | 87.6 | 1019.7 | 0.6 | N | 2.8 | NNE | 0.0 | 37.8 | |||||||||
| 06:30 | 20.6 | 86.3 | 1019.8 | 1.0 | NNE | 3.2 | NNE | 0.0 | 40.8 | |||||||||
| 06:35 | 21.0 | 84.7 | 1019.8 | 1.0 | NE | 3.5 | NE | 0.0 | 40.7 | |||||||||
| 06:40 | 21.3 | 83.5 | 1019.7 | 0.6 | NE | 2.8 | ENE | 0.0 | 41.5 | |||||||||
| 06:45 | 21.6 | 81.3 | 1019.7 | 2.3 | SSW | 10.9 | SW | 0.0 | 42.3 | |||||||||
| 06:50 | 22.1 | 77.3 | 1019.7 | 5.5 | SSW | 12.0 | SW | 0.0 | 43.8 | |||||||||
| 06:55 | 22.9 | 73.6 | 1019.8 | 3.1 | SW | 10.2 | WNW | 0.0 | 45.4 | |||||||||
| 07:00 | 23.3 | 71.2 | 1019.8 | 6.5 | SSW | 13.8 | SW | 0.0 | 46.6 | |||||||||
| 07:05 | 23.7 | 70.4 | 1019.8 | 5.4 | SW | 13.8 | S | 0.0 | 48.0 | |||||||||
| 07:10 | 23.8 | 68.6 | 1019.8 | 7.8 | SW | 13.1 | SW | 0.0 | 49.5 | |||||||||
| 07:15 | 23.9 | 68.1 | 1019.7 | 5.2 | WSW | 13.8 | WSW | 0.0 | 51.1 | |||||||||
| 07:20 | 24.2 | 67.5 | 1019.7 | 5.5 | SSW | 10.2 | SW | 0.0 | 66.0 | |||||||||
| 07:25 | 24.3 | 67.2 | 1019.6 | 3.5 | SW | 9.5 | SSW | 0.0 | 52.6 | |||||||||
| 07:30 | 24.5 | 67.5 | 1019.5 | 6.3 | SSE | 13.1 | SSW | 0.0 | 104.4 | |||||||||
| 07:35 | 24.7 | 67.1 | 1019.5 | 7.1 | S | 10.9 | S | 0.0 | 128.5 | |||||||||
| 07:40 | 24.8 | 66.8 | 1019.5 | 5.9 | S | 10.9 | S | 0.0 | 105.6 | |||||||||
| 07:45 | 25.0 | 66.7 | 1019.6 | 5.1 | SSW | 11.3 | S | 0.0 | 173.4 | |||||||||
| 07:50 | 25.2 | 66.4 | 1019.6 | 5.9 | SW | 15.2 | S | 0.0 | 279.2 | |||||||||
| 07:55 | 25.5 | 65.6 | 1019.6 | 6.8 | S | 10.9 | SW | 0.0 | 400.6 | |||||||||
| 08:00 | 25.8 | 65.1 | 1019.6 | 6.0 | SSE | 12.4 | SSE | 0.0 | 416.4 | |||||||||
| 08:05 | 25.8 | 64.6 | 1019.5 | 5.5 | SSE | 9.2 | ESE | 0.0 | 432.0 | |||||||||
| 08:10 | 26.0 | 64.7 | 1019.5 | 4.6 | SSE | 8.8 | SSE | 0.0 | 446.0 | |||||||||
| 08:15 | 26.1 | 64.0 | 1019.6 | 8.7 | SE | 12.0 | ESE | 0.0 | 458.9 | |||||||||
| 08:20 | 26.2 | 63.9 | 1019.7 | 5.1 | E | 10.9 | E | 0.0 | 470.5 | |||||||||
| 08:25 | 26.2 | 63.1 | 1019.7 | 4.6 | NE | 9.5 | NE | 0.0 | 485.9 | |||||||||
| 08:30 | 26.2 | 64.2 | 1019.7 | 4.9 | NNW | 8.5 | NNW | 0.0 | 499.1 | |||||||||
| Máxima | 26.2 | 92.9 | 1020.6 | 8.7 | SE | 15.2 | S | 0.0 | 499.1 | |||||||||
| Mínima | 18.3 | 63.1 | 1019.4 | |||||||||||||||
| Total | 0.0 | |||||||||||||||||